Kodiak, AK

7:10 PM AKST on February 23, 2017 (GMT -0900)
Kodiak

Weather History for PADQ - August, 2014

Change the Weather History Date:

Tuesday, August 12, 2014

  Actual Average Record
Temperature  
Mean Temperature 59 °F 56 °F  
Max Temperature 63 °F 62 °F 78 °F (2007)
Min Temperature 54 °F 50 °F 40 °F (1998)
Degree Days  
Heating Degree Days 6    
Month to date heating degree days 89 108  
Since 1 June heating degree days 751 895  
Since 1 July heating degree days 329 434  
Cooling Degree Days 0    
Month to date cooling degree days 0  
Year to date cooling degree days 4  
Since 1 June cooling degree days 0  
Growing Degree Days 9 (Base 50)    
Moisture  
Dew Point 54 °F    
Average Humidity 0    
Maximum Humidity 0    
Minimum Humidity 0    
Precipitation  
Precipitation 0.62 in 0.13 in 2.00 in (1951)
Month to date precipitation 4.79 1.67  
Year to date precipitation 47.12 43.90  
Snow  
Snow 0.00 in 0.00 in 0.00 in (2016)
Month to date snowfall 0.0 0.0  
Since 1 June snowfall 0.0 0.0  
Since 1 July snowfall 0.0 0.0  
Snow Depth 0.00 in    
Sea Level Pressure  
Sea Level Pressure 29.47 in    
Wind  
Wind Speed 11 mph (ESE)    
Max Wind Speed 18 mph    
Max Gust Speed 23 mph    
Visibility 7 miles    
Events Rain    
T = Trace of Precipitation, MM = Missing Value Source: NWS Daily Summary

Daily Weather History Graph

Daily Weather History Graph

Search for Another Location

Airport or City:

Trip Planner

Search our weather history database for the weather conditions in past years. The results will help you decide how hot, cold, wet, or windy it might be!

Date:

Astronomy

Aug. 12, 2014 Rise Set
Actual Time 6:28 AM AKDT 10:00 PM AKDT
Civil Twilight 5:40 AM AKDT 10:47 PM AKDT
Nautical Twilight 4:32 AM AKDT 11:54 PM AKDT
Astronomical Twilight 2:47 AM AKDT 1:42 AM AKDT
Moon 10:23 PM AKDT (8/12) 9:41 AM AKDT (8/12)
Length of Visible Light 17h 06m
Length of Day
15h 31m
Waning Gibbous, 94% of the Moon is Illuminated
Aug 12
Waning Gibbous
Aug 17
Last Quarter
Aug 25
New
Sep 2
First Quarter
Sep 8
Full

Hourly Weather History & Observations

Time (AKDT) Temp. Dew Point Humidity Pressure Visibility Wind Dir Wind Speed Gust Speed Precip Events Conditions
12:53 AM 53.6 °F 53.6 °F 100% 29.54 in 10.0 mi ESE 3.5 mph - N/A   Mostly Cloudy
1:53 AM 55.0 °F 53.1 °F 93% 29.55 in 10.0 mi Calm Calm - N/A   Overcast
2:10 AM 55.4 °F 53.6 °F 94% 29.54 in 10.0 mi Calm Calm - N/A   Overcast
2:53 AM 55.9 °F 52.0 °F 87% 29.54 in 10.0 mi SSE 6.9 mph - N/A   Overcast
3:53 AM 55.4 °F 53.6 °F 94% 29.53 in 10.0 mi SE 8.1 mph - N/A   Overcast
4:09 AM 55.4 °F 53.6 °F 94% 29.53 in 3.0 mi ESE 8.1 mph - N/A   Overcast
4:31 AM 55.4 °F 53.6 °F 94% 29.53 in 10.0 mi ESE 9.2 mph - N/A   Overcast
4:44 AM 55.4 °F 53.6 °F 94% 29.52 in 10.0 mi ESE 8.1 mph - N/A   Overcast
4:53 AM 55.0 °F 53.1 °F 93% 29.52 in 10.0 mi ESE 11.5 mph - N/A   Overcast
5:53 AM 55.0 °F 54.0 °F 96% 29.52 in 8.0 mi East 12.7 mph - 0.00 in   Overcast
6:10 AM 55.4 °F 53.6 °F 94% 29.51 in 5.0 mi East 12.7 mph - N/A   Overcast
6:53 AM 55.0 °F 54.0 °F 96% 29.50 in 2.0 mi East 11.5 mph - 0.00 in Rain Light Rain
7:05 AM 55.4 °F 53.6 °F 94% 29.49 in 1.5 mi East 11.5 mph - 0.01 in Rain Light Rain
7:53 AM 55.0 °F 54.0 °F 96% 29.48 in 2.0 mi East 17.3 mph - 0.02 in Rain Light Rain
9:53 AM 55.0 °F 54.0 °F 96% 29.45 in 2.0 mi ENE 11.5 mph - 0.20 in Rain Heavy Rain
10:53 AM 55.0 °F 54.0 °F 96% 29.42 in 2.0 mi ENE 16.1 mph - 0.21 in Rain Rain
11:53 AM 55.0 °F 55.0 °F 100% 29.41 in 2.0 mi East 17.3 mph - 0.12 in Rain Rain
11:56 AM 55.4 °F 55.4 °F 100% 29.41 in 3.0 mi East 17.3 mph - 0.01 in Rain Rain
12:41 PM 55.4 °F 53.6 °F 94% 29.40 in 3.0 mi East 10.4 mph - N/A Rain Light Rain
12:53 PM 55.9 °F 55.0 °F 97% 29.40 in 4.0 mi East 10.4 mph - 0.06 in Rain Light Rain
1:00 PM 55.4 °F 55.4 °F 100% 29.40 in 4.0 mi East 11.5 mph - 0.00 in Rain Light Rain
1:53 PM 57.0 °F 55.9 °F 96% 29.40 in 6.0 mi East 10.4 mph - 0.00 in Rain Light Rain
2:38 PM 60.8 °F 57.2 °F 88% 29.40 in 10.0 mi ESE 12.7 mph - 0.00 in   Overcast
2:53 PM 60.1 °F 57.0 °F 90% 29.40 in 10.0 mi ESE 13.8 mph - 0.00 in   Overcast
3:45 PM 62.6 °F 57.2 °F 82% 29.41 in 10.0 mi ESE 11.5 mph - N/A   Mostly Cloudy
3:53 PM 62.1 °F 55.9 °F 80% 29.41 in 10.0 mi SE 11.5 mph - N/A   Mostly Cloudy
4:53 PM 61.0 °F 55.9 °F 83% 29.42 in 10.0 mi SE 13.8 mph - N/A   Mostly Cloudy
5:53 PM 61.0 °F 55.0 °F 81% 29.42 in 10.0 mi SE 16.1 mph - N/A   Mostly Cloudy
6:53 PM 60.1 °F 55.0 °F 83% 29.44 in 10.0 mi SE 10.4 mph 17.3 mph N/A   Mostly Cloudy
7:53 PM 60.1 °F 53.1 °F 78% 29.45 in 10.0 mi SSE 12.7 mph - N/A   Mostly Cloudy
8:53 PM 59.0 °F 53.1 °F 81% 29.45 in 10.0 mi SE 8.1 mph - N/A   Mostly Cloudy
9:53 PM 57.9 °F 54.0 °F 87% 29.47 in 10.0 mi ENE 5.8 mph - N/A   Mostly Cloudy
10:28 PM 55.4 °F 53.6 °F 94% 29.47 in 2.0 mi East 9.2 mph - 0.00 in   Overcast
10:35 PM 55.4 °F 53.6 °F 94% 29.47 in 2.0 mi East 9.2 mph - 0.00 in   Overcast
10:53 PM 55.9 °F 55.0 °F 97% 29.48 in 2.0 mi ESE 6.9 mph - 0.00 in   Overcast
11:05 PM 55.4 °F 53.6 °F 94% 29.47 in 4.0 mi ESE 3.5 mph - N/A   Overcast
11:14 PM 55.4 °F 53.6 °F 94% 29.47 in 4.0 mi ESE 5.8 mph - N/A   Overcast
11:53 PM 57.0 °F 52.0 °F 83% 29.47 in 10.0 mi SE 10.4 mph - N/A   Overcast